Wind_Speed
4 5 6 8 9 9 9 7 5 5 6 9 9 9 9 10 6 3 5 4 4 5 3 3 1 3 5 5 6 6 8 8 8 4 2 5 4 7 9 16 23 23 24 23 27 30 27 27 27 27 26 26 26 27 28 28 28 27 27 27 25 23 24 24 22 19 17 16 15 15 14 14 12 11 11 11 12 14 14 14 12 10 10 10 10 10 10 10 10 10 10 9 9 10 10 10 10
5 7 8 9 10 9 6 5 7 6 7 9 8 10 9 5 5 10 9 5 2 3 1 3 3 5 5 6 7 6 2 9 10 7 6 7 8 8 13 19 23 23 22 23 26 26 24 26 28 27 26 26 26 27 27 28 28 28 27 26 24 24 25 24 21 18 17 16 15 15 15 14 12 11 10 11 12 13 15 14 13 11 10 10 9 9 9 10 10 9 10 9 9 10 10 10 10
7 8 9 10 9 8 5 5 8 7 8 8 7 11 10 5 5 5 2 4 4 3 1 2 3 4 5 6 5 5 2 9 9 9 7 8 9 10 17 22 23 24 22 23 25 24 23 25 28 27 27 27 27 27 27 28 28 28 28 26 25 24 24 22 20 18 17 17 16 15 15 13 12 11 10 11 12 12 14 14 13 11 10 10 9 9 9 9 9 9 9 9 8 9 9 9 10
7 9 11 9 7 6 6 6 7 9 8 7 6 9 10 6 3 4 3 2 2 2 4 3 3 2 5 5 1 0 4 7 7 7 6 7 9 13 19 23 24 24 22 23 24 23 22 25 29 28 28 27 27 27 27 28 28 29 28 26 25 23 22 21 19 18 18 17 16 15 14 13 12 12 11 12 13 13 13 13 12 11 11 10 10 9 9 8 8 8 8 8 8 8 9 9 9
7 10 11 10 6 3 5 6 7 9 9 7 4 3 5 3 4 6 2 2 2 4 4 5 3 2 4 3 2 1 3 4 7 8 7 9 12 15 19 23 23 24 24 24 24 23 23 28 30 29 29 28 28 27 27 28 28 29 27 25 23 22 21 20 19 19 18 17 16 15 14 13 12 12 12 13 13 13 13 13 12 11 11 11 11 10 9 9 8 8 8 8 7 8 9 8 8
9 10 10 10 6 4 5 7 8 9 10 11 6 3 3 5 5 1 1 3 4 4 4 5 2 4 3 2 5 5 5 1 4 6 7 10 12 15 19 22 21 22 25 25 24 23 26 30 30 30 29 28 28 28 28 29 29 29 26 25 22 22 21 20 20 19 17 16 16 15 14 13 12 12 12 13 13 14 14 14 13 12 11 11 11 10 10 9 9 9 8 8 7 9 9 7 7
10 8 7 8 6 4 7 8 9 9 10 13 9 3 5 4 2 4 4 5 6 6 6 4 3 4 4 4 5 7 7 3 4 7 10 12 13 16 19 21 21 21 24 26 25 26 29 31 30 29 29 28 28 29 29 29 29 28 26 24 23 22 21 20 19 18 17 16 15 14 13 12 12 12 11 13 14 14 14 14 13 12 12 11 11 10 10 9 10 9 8 7 8 9 8 7 6
11 8 4 6 6 5 8 9 9 9 7 10 9 1 4 2 2 5 4 5 5 8 10 6 7 6 3 5 4 6 7 7 8 12 13 14 14 18 17 18 21 19 23 27 24 28 32 31 31 30 29 28 29 29 29 28 28 27 25 24 22 22 21 20 19 18 16 15 14 13 12 12 11 11 11 12 13 15 15 14 13 11 11 11 11 11 10 9 9 10 8 7 8 9 8 6 5
11 8 4 6 7 6 8 8 9 10 8 6 6 2 1 2 5 7 5 6 4 5 9 9 9 7 3 6 6 5 5 7 10 12 12 13 15 17 14 17 21 19 24 26 24 30 33 32 31 30 29 28 29 29 28 28 27 26 25 23 22 21 20 19 18 17 16 15 13 12 11 10 10 10 10 11 11 13 14 15 13 11 11 10 11 11 10 10 10 10 8 7 7 8 7 5 4
8 7 5 6 7 8 8 8 8 9 10 5 3 3 1 3 7 8 8 9 6 7 8 7 8 6 5 8 7 4 5 7 10 11 12 13 15 14 12 18 21 20 22 22 23 29 32 32 31 31 30 29 29 29 28 28 27 25 24 22 21 20 19 18 17 16 15 14 12 11 10 10 10 10 10 10 10 11 13 13 13 12 11 10 10 10 9 9 10 9 8 7 7 7 6 5 4
6 6 6 6 7 8 7 8 8 9 10 4 3 3 1 3 7 8 10 9 7 9 7 6 7 6 5 7 6 3 5 7 10 12 12 13 13 12 13 20 20 19 20 20 23 27 30 30 30 30 30 30 30 30 29 28 26 25 23 22 20 19 18 16 15 15 15 12 11 11 11 10 10 9 9 10 10 11 12 12 12 12 11 10 10 9 8 8 8 8 7 7 7 7 6 5 4
7 7 6 7 7 8 8 8 8 8 7 5 6 4 2 4 8 8 11 10 8 10 7 7 5 6 6 6 4 4 6 6 11 12 11 12 11 11 16 21 20 19 20 23 24 27 29 29 30 29 29 30 30 30 29 27 25 24 23 22 20 17 15 14 14 14 13 11 11 11 11 11 10 10 9 10 11 11 11 11 11 11 11 9 9 9 8 8 8 8 8 6 6 7 6 5 5
7 7 6 7 7 8 9 8 6 5 4 6 5 5 2 6 8 9 11 11 10 11 10 9 4 6 7 8 4 4 6 6 11 12 11 12 11 13 19 20 19 19 22 24 23 27 29 28 27 26 28 30 30 30 28 27 25 23 22 21 19 17 15 14 13 13 12 11 11 11 11 11 10 10 10 10 10 10 10 10 10 11 10 9 8 8 8 7 8 7 7 5 5 6 6 5 6
8 6 7 7 8 10 9 8 6 5 6 5 2 4 1 5 5 8 9 10 12 10 6 10 4 7 5 7 4 4 5 7 11 12 11 12 12 16 21 21 19 20 21 23 23 26 29 28 25 24 26 28 28 28 27 26 25 23 21 19 18 16 16 14 13 11 10 10 11 11 11 11 11 11 11 10 9 10 10 10 11 9 10 9 8 8 7 7 6 6 6 5 6 6 6 5 5
8 6 6 7 8 9 7 8 6 6 3 6 5 1 4 4 4 9 10 13 11 4 4 8 4 6 7 3 3 7 9 11 12 12 12 13 15 17 21 22 20 19 17 19 22 26 29 29 26 25 25 27 29 27 25 26 24 23 20 18 18 16 15 14 12 11 10 10 11 12 12 11 11 11 11 10 9 9 10 10 10 9 9 9 8 7 6 6 6 5 5 6 7 8 7 5 3
7 6 6 7 8 9 7 7 6 7 0 7 4 2 6 4 5 9 8 11 5 6 3 6 3 1 7 6 7 12 14 14 13 12 13 15 17 16 19 22 21 19 16 17 18 22 29 30 28 27 26 29 29 26 25 25 23 21 19 18 18 16 15 13 12 11 11 11 11 12 13 12 11 10 10 10 9 9 9 10 9 10 10 9 8 7 6 6 6 5 5 5 6 9 9 6 4
6 6 7 7 9 9 6 5 6 5 3 5 2 1 7 4 7 6 4 10 5 9 7 6 5 4 9 10 12 16 15 14 15 14 14 15 15 13 14 18 19 17 15 16 14 19 30 32 30 29 29 28 26 25 24 23 22 20 19 18 17 16 15 14 13 12 13 12 12 13 12 11 10 10 10 10 10 9 9 9 9 10 9 9 9 8 7 6 6 5 4 4 5 8 10 7 4
6 6 8 8 9 8 7 6 3 3 3 5 3 2 7 3 5 4 5 11 7 10 7 6 8 10 12 11 13 15 15 15 15 14 14 13 12 11 11 15 18 16 14 14 16 21 29 30 29 30 30 27 25 25 23 22 22 20 18 18 17 16 14 14 14 14 14 14 14 14 12 10 10 11 11 10 10 10 9 9 9 10 9 9 9 8 7 6 6 5 4 4 5 7 10 8 5
8 7 8 8 9 8 5 4 3 3 3 4 2 2 4 4 1 3 6 9 8 10 10 9 11 13 11 10 13 14 14 15 14 13 13 11 11 12 11 15 18 17 14 14 18 21 25 28 28 29 29 27 26 24 23 23 23 21 19 18 18 16 15 15 14 14 14 14 14 13 12 12 12 12 12 11 11 11 10 10 10 10 9 9 9 8 7 7 6 4 5 6 7 9 10 8 7
9 8 9 8 12 10 3 3 5 4 5 3 1 2 4 3 1 4 7 8 10 11 10 11 11 14 12 8 10 13 14 14 14 12 12 11 11 12 12 16 17 17 17 16 17 18 20 23 24 25 28 28 27 24 23 24 22 21 19 18 18 16 16 15 14 13 12 13 13 10 10 11 12 12 12 10 11 11 10 11 11 11 10 9 8 8 8 7 6 5 6 8 7 8 8 7 8
8 9 11 10 10 9 3 2 5 4 4 4 3 4 6 2 1 5 8 8 9 10 10 10 10 16 13 9 9 11 13 13 12 12 12 11 11 11 11 16 19 18 18 16 16 16 15 18 21 22 26 27 24 25 26 24 22 20 18 17 17 16 14 12 13 13 11 11 12 10 9 9 10 10 10 10 11 11 11 11 11 11 10 10 9 9 9 8 8 7 7 7 6 7 6 6 7
8 12 14 14 10 6 5 3 1 2 3 5 6 7 4 1 5 7 8 8 7 6 8 7 10 17 12 10 10 10 12 11 11 11 11 11 11 11 11 15 19 19 18 16 15 16 14 17 20 20 24 26 24 25 25 22 21 19 16 15 16 16 13 11 11 11 10 10 10 9 9 9 10 11 11 12 11 11 14 12 11 11 10 11 11 10 10 9 9 9 8 7 6 5 5 5 6
9 12 13 14 13 8 7 3 3 2 6 7 7 5 4 5 8 6 9 8 4 3 4 3 7 15 12 11 10 11 12 11 10 10 11 12 11 11 12 13 16 16 15 15 15 15 15 17 18 18 21 25 25 23 20 20 21 19 16 14 14 13 12 11 10 9 9 9 8 7 8 8 9 12 13 12 11 12 15 13 12 11 10 12 12 11 11 10 9 9 8 6 5 5 5 5 6
12 12 12 13 13 10 9 5 3 5 7 8 6 5 5 9 7 5 9 6 4 4 4 2 3 11 12 10 9 10 12 12 11 10 11 11 10 11 11 11 12 13 13 14 15 15 16 16 17 18 18 22 23 20 19 21 22 19 18 17 14 13 12 11 10 9 8 8 9 7 7 7 7 10 12 10 11 11 12 13 12 12 11 12 13 10 10 11 9 8 7 6 5 5 5 5 7
15 14 12 10 9 10 10 10 9 8 7 8 8 8 8 10 7 4 9 6 6 5 6 6 5 8 12 12 11 11 12 13 12 11 11 10 10 11 11 11 11 12 14 15 16 16 16 17 17 18 19 21 21 19 18 20 22 18 17 17 15 15 13 10 9 8 7 7 10 7 5 7 7 7 8 9 10 9 9 11 11 12 12 11 12 10 9 9 9 8 7 6 6 6 6 5 7
12 15 15 11 9 9 10 12 13 10 7 8 10 11 11 10 6 6 10 7 7 6 8 7 7 7 10 12 12 12 13 13 13 12 11 10 11 12 11 11 11 12 14 14 15 16 17 18 17 17 17 19 19 18 17 17 18 16 15 15 13 13 11 8 8 7 6 7 8 6 4 7 7 6 8 7 7 6 6 9 9 10 11 9 10 9 7 7 7 7 7 7 7 6 6 6 7
7 11 16 16 13 10 10 13 13 11 10 11 11 12 13 10 5 8 12 9 7 8 9 7 8 9 8 9 10 11 12 13 13 13 11 11 12 11 11 11 10 13 14 14 15 16 18 18 17 17 16 17 17 17 17 16 15 14 13 13 10 10 8 7 8 7 6 6 5 5 5 6 6 6 7 7 6 6 6 7 7 9 11 11 9 7 7 7 6 7 7 6 6 6 6 6 7
9 8 11 15 15 12 12 13 12 10 10 11 11 12 14 10 9 13 11 10 9 10 8 8 9 9 10 9 11 10 10 12 12 12 11 11 11 10 11 11 11 13 14 14 15 17 19 17 17 18 17 17 17 16 16 15 14 13 12 11 9 8 7 6 7 7 6 4 4 5 8 7 7 7 6 7 8 7 7 6 6 8 11 13 10 8 7 7 7 8 7 6 6 5 6 6 7
13 10 9 12 14 14 15 15 12 12 10 11 12 12 14 12 11 16 10 9 9 10 8 9 10 10 13 11 10 9 9 11 12 11 11 10 10 10 10 11 12 13 13 15 17 19 19 17 16 16 15 15 15 14 15 14 13 13 11 10 9 8 7 7 7 8 6 4 4 6 8 7 8 9 8 8 7 8 8 7 8 8 10 12 10 8 8 8 8 8 8 8 7 7 7 6 8
12 11 9 10 12 13 16 16 15 15 11 11 11 9 12 14 15 17 11 10 10 11 9 10 9 11 13 11 10 10 10 11 11 11 10 9 10 10 10 11 12 12 14 16 18 19 18 16 14 14 14 15 13 13 12 12 13 13 11 9 9 8 7 8 8 8 7 5 4 5 7 10 11 11 10 11 9 10 10 9 9 8 9 11 10 8 9 9 9 9 9 8 8 8 8 8 8
11 11 9 9 9 10 15 17 17 16 11 11 11 8 10 14 17 20 15 12 12 11 11 11 7 11 11 10 10 10 10 10 11 11 10 9 9 9 10 12 12 12 14 16 17 18 17 15 13 12 14 14 12 11 11 11 12 13 11 9 9 8 7 7 6 8 8 6 7 6 9 13 12 10 12 13 12 11 11 10 9 7 7 9 9 10 10 9 9 9 8 8 7 8 8 7 7
10 10 9 10 9 11 14 18 17 15 12 14 13 8 8 14 18 21 16 12 13 12 11 10 9 13 11 9 10 9 9 10 11 11 9 9 9 9 10 12 13 13 15 16 16 18 16 14 12 12 13 13 11 10 11 9 6 9 9 9 9 7 7 7 6 7 8 8 9 9 12 13 10 10 12 13 13 12 11 10 8 7 8 8 7 9 8 7 8 7 7 8 7 7 8 8 7
9 9 10 11 11 12 10 14 16 16 13 15 15 10 9 14 12 15 15 12 14 12 11 11 9 13 11 8 8 8 9 10 10 11 11 10 9 10 11 13 13 12 14 14 16 17 16 14 11 11 12 11 10 9 8 6 8 9 9 9 9 8 8 8 6 6 7 8 9 9 11 11 9 10 12 11 11 11 10 7 6 6 9 10 7 7 6 5 7 5 6 6 7 7 7 8 8
9 9 10 11 13 13 10 12 14 17 16 15 16 13 13 9 5 12 12 11 13 12 12 12 10 12 12 10 9 9 9 10 9 10 12 11 11 12 10 12 12 12 13 12 15 16 15 14 11 10 11 11 11 10 7 7 9 11 10 10 10 11 10 10 8 8 8 8 8 8 9 10 10 9 9 9 9 9 7 5 5 5 7 9 7 7 7 5 5 5 6 6 7 7 7 8 7
9 10 9 10 13 13 13 11 12 17 18 15 14 13 16 13 8 11 11 11 13 13 12 11 12 13 12 11 9 9 10 10 10 12 13 11 12 13 11 12 12 11 11 10 13 12 11 12 10 9 10 10 12 12 10 10 10 11 12 13 14 15 14 12 11 10 8 7 7 8 7 8 9 9 7 7 7 7 6 5 6 7 7 7 8 9 9 6 4 4 5 5 6 6 6 6 6
13 12 11 12 12 11 14 10 10 14 16 14 14 13 14 17 12 10 11 11 13 12 11 10 11 12 11 9 10 10 10 10 10 14 16 12 11 13 12 12 11 10 10 11 12 11 9 10 11 12 12 12 14 14 12 12 12 13 15 15 14 13 12 9 8 7 6 5 6 7 6 6 7 8 7 5 5 5 4 5 7 8 8 7 8 10 10 8 6 6 5 5 5 5 5 6 6
10 11 11 14 12 9 13 11 10 10 11 12 16 14 13 15 14 11 11 12 12 13 12 10 11 12 13 12 13 13 11 10 11 14 16 15 14 13 11 10 10 11 10 9 12 13 11 11 11 13 14 13 13 12 11 11 14 14 12 11 10 9 8 7 7 6 5 5 6 7 6 6 5 6 6 5 5 4 3 4 4 7 9 9 9 10 10 8 7 6 5 5 6 6 7 8 8
8 9 8 11 12 9 14 13 11 9 8 9 13 14 14 14 12 13 12 13 12 13 12 12 13 12 14 13 13 12 11 11 11 12 14 15 16 15 12 11 12 14 12 14 15 13 11 10 10 12 14 12 10 10 12 12 10 9 8 7 8 8 7 7 6 6 6 6 6 7 7 6 6 5 6 5 4 4 4 3 3 5 10 11 9 11 12 8 7 6 5 6 6 5 6 6 9
8 8 7 8 9 9 12 11 9 7 7 8 12 13 13 12 12 14 12 11 10 13 13 14 15 12 14 15 14 13 11 10 12 11 9 13 17 17 15 14 15 18 18 17 13 10 8 6 5 9 13 11 9 9 9 6 6 9 8 8 7 7 7 7 7 6 6 6 6 6 7 7 6 5 5 6 5 5 4 3 3 3 7 9 8 11 12 8 7 6 5 5 5 5 5 4 5
9 8 8 7 8 10 9 9 9 8 7 9 12 10 9 10 13 13 10 10 11 12 12 12 14 13 14 14 12 13 12 12 13 9 7 8 13 17 16 15 17 18 16 12 9 8 5 3 5 9 12 10 9 7 7 8 10 11 11 10 9 9 9 8 7 6 6 6 6 5 5 5 6 5 5 5 5 5 5 4 5 4 5 7 7 9 11 10 9 9 7 6 6 6 6 4 4
10 12 11 9 11 12 8 6 9 10 8 9 10 6 7 11 13 11 8 11 12 9 9 9 10 10 12 14 11 13 14 11 12 13 6 6 10 14 16 16 16 15 14 12 12 10 9 5 4 8 14 13 10 9 9 9 11 11 11 9 9 9 9 8 7 6 6 6 6 6 5 5 5 5 4 4 4 4 4 4 4 4 4 7 9 8 8 10 11 11 9 8 7 6 4 4 4
10 13 14 14 13 12 8 6 7 7 7 11 11 7 8 10 13 12 10 12 12 10 11 13 12 12 12 15 13 14 11 5 11 13 12 12 11 12 15 16 14 12 12 13 13 11 11 11 10 15 17 12 10 11 9 8 9 8 8 7 7 7 7 7 7 6 6 6 6 5 5 4 4 5 4 4 4 3 3 2 2 3 3 4 8 10 7 8 11 11 9 8 7 6 3 4 5
8 11 16 18 13 10 11 10 8 7 5 9 13 10 7 7 11 12 12 13 14 13 14 16 15 14 12 13 13 12 10 10 8 10 14 13 14 14 14 16 18 17 15 14 14 11 10 10 10 14 17 13 10 9 8 8 8 7 6 5 5 6 6 7 7 6 6 6 5 5 4 4 3 4 4 4 4 4 3 2 1 2 3 3 4 7 7 7 7 9 8 7 7 6 5 5 5
8 9 16 17 13 11 10 8 8 7 3 5 12 12 7 5 8 11 13 13 16 16 15 15 15 15 15 14 14 12 12 14 10 13 13 12 15 16 17 17 21 25 22 19 18 14 12 11 9 11 14 15 13 11 9 10 9 7 5 4 4 5 6 7 7 6 6 5 5 4 4 5 4 4 4 3 4 3 3 2 1 1 2 3 4 5 6 6 5 6 6 5 5 5 5 4 3
12 9 12 15 15 13 10 8 9 8 5 5 10 11 8 6 7 10 12 13 16 16 16 15 14 13 15 13 14 13 12 14 14 13 12 12 14 17 19 20 21 24 23 21 20 17 16 15 12 11 11 12 14 13 11 11 10 8 6 5 5 6 7 7 6 6 6 5 5 4 4 5 4 4 4 4 3 3 2 2 2 2 2 2 3 5 5 5 6 6 5 4 4 4 3 3 3
13 7 8 12 15 13 11 9 9 8 8 7 9 11 8 5 7 9 10 12 13 13 13 14 11 10 12 11 15 14 13 14 12 11 10 13 16 17 18 20 21 20 17 16 17 16 17 17 15 13 10 10 12 13 12 11 10 8 7 6 6 7 7 6 6 6 6 6 5 5 4 5 5 4 4 4 3 3 3 3 3 3 4 3 4 5 6 6 6 7 6 6 5 4 3 3 3
7 4 8 11 11 10 8 7 8 7 7 9 10 12 10 5 7 8 7 7 9 11 11 10 9 9 9 9 13 13 14 13 11 10 10 15 19 19 18 19 21 21 20 20 20 21 22 21 19 16 12 11 13 13 12 12 11 9 8 7 6 7 6 6 6 6 5 6 6 5 5 5 5 5 5 4 3 4 5 5 5 5 5 5 5 5 5 5 6 7 7 7 7 6 5 4 3
6 7 9 8 8 8 7 7 8 7 7 10 10 12 11 5 3 5 6 5 2 6 9 8 5 5 5 8 10 12 13 13 12 11 11 14 19 20 21 21 20 23 26 25 21 22 24 23 22 19 15 13 14 15 13 13 12 11 9 8 7 7 7 6 6 6 6 5 5 6 5 5 5 5 5 4 4 5 5 5 5 5 6 6 6 6 6 5 6 6 7 7 7 7 7 6 5
8 9 9 8 7 7 8 8 8 7 6 7 9 11 9 4 3 4 9 9 7 7 8 7 4 1 3 8 9 9 11 12 11 11 12 13 16 19 20 20 20 22 22 20 16 16 18 21 21 20 19 17 16 16 14 12 12 11 10 10 8 8 8 7 6 5 5 5 5 6 6 6 6 5 5 5 5 5 5 5 5 6 7 7 7 7 7 7 6 6 7 8 7 8 7 7 7
10 10 9 9 7 6 8 8 8 8 5 5 8 9 8 6 7 6 6 6 8 10 8 7 5 4 5 9 10 9 11 14 12 11 13 14 15 18 20 20 20 18 17 19 18 15 15 19 20 19 19 18 15 13 12 11 11 10 10 10 9 9 8 8 7 6 5 5 6 6 6 7 7 6 5 5 5 5 5 6 6 6 7 8 8 8 8 8 8 8 9 9 9 9 9 9 8
11 11 9 8 6 6 7 6 6 6 6 7 8 7 7 6 7 9 8 6 8 10 9 8 7 5 5 9 11 10 11 13 11 11 13 16 18 20 20 19 17 16 17 20 21 18 15 15 17 16 15 13 11 11 11 11 11 10 10 10 9 9 8 8 7 6 5 5 6 6 7 7 7 7 6 6 6 6 6 6 6 7 7 8 8 8 8 8 8 9 9 9 10 9 10 10 9
9 10 9 8 6 5 4 1 1 2 3 6 7 4 2 4 7 9 10 9 9 10 10 9 8 7 7 8 11 11 9 10 10 9 12 17 19 20 18 15 14 14 13 15 19 19 17 16 18 18 16 14 12 11 10 10 11 10 10 10 10 9 9 8 8 7 6 6 7 6 7 7 8 7 6 6 6 6 7 7 7 8 7 8 8 8 8 8 8 8 8 9 9 9 9 9 9
6 9 9 7 6 6 5 3 3 2 5 5 7 5 5 7 7 8 10 10 10 10 9 9 9 9 9 9 10 11 9 10 10 10 13 16 16 16 16 13 12 12 11 13 18 20 21 24 26 22 18 19 18 13 11 10 10 10 10 10 11 11 11 10 9 9 8 8 7 7 8 8 8 8 7 7 7 7 7 8 8 8 8 8 8 8 8 8 8 8 8 9 9 9 10 9 9
5 7 7 5 4 5 5 4 5 6 7 5 7 8 8 7 6 7 10 10 10 10 9 10 11 10 10 10 10 11 11 11 12 12 14 15 15 16 15 12 10 9 10 11 14 17 22 25 24 19 17 18 14 11 11 10 10 10 11 11 12 12 12 11 11 10 9 8 8 8 9 9 9 9 9 8 8 7 8 8 9 9 8 8 8 8 8 8 8 8 8 9 9 9 10 10 9
9 5 5 6 5 5 5 4 4 6 7 6 7 10 8 6 7 10 10 9 10 11 9 10 12 12 11 11 11 12 12 12 12 12 11 12 15 17 16 14 11 9 9 10 10 13 15 15 14 13 13 12 9 9 10 10 10 10 11 12 13 13 13 12 12 11 9 9 9 10 9 9 10 10 9 9 9 8 8 8 9 9 8 8 8 8 8 8 8 8 8 9 9 9 9 10 9
10 7 6 6 5 5 4 4 5 6 6 6 7 9 4 2 2 8 10 10 9 10 10 10 12 12 11 10 10 10 10 10 10 10 10 10 13 17 17 16 13 10 11 11 9 9 9 8 8 9 10 9 8 8 8 9 10 9 11 12 13 13 13 13 13 12 10 9 10 11 11 10 10 10 9 10 9 8 8 8 8 9 9 9 8 8 8 9 9 9 9 9 9 9 10 10 9
10 8 7 6 4 3 3 4 6 6 6 6 7 7 4 6 5 6 9 9 8 10 11 11 11 12 11 11 10 10 10 9 9 10 9 7 9 14 16 15 14 13 13 12 10 10 10 9 9 10 10 10 9 7 7 8 8 9 10 12 12 13 13 13 13 12 11 10 10 13 14 10 9 10 10 10 9 9 9 8 9 9 9 9 9 9 9 9 9 9 9 9 9 9 10 9 9
8 9 9 9 7 5 5 6 7 6 6 5 6 4 4 4 4 5 7 6 8 10 12 12 12 12 12 11 11 11 10 9 8 10 10 9 9 11 12 12 13 14 14 13 11 11 12 11 12 12 12 12 11 9 9 9 9 9 9 10 11 13 14 14 14 12 12 12 11 13 14 11 9 10 10 10 10 9 9 9 9 9 9 9 9 9 8 9 9 10 9 8 8 8 9 9 8
Wind_Direction
200 209 208 213 222 217 203 216 230 205 227 250 241 244 241 233 246 273 240 217 254 234 211 280 275 270 273 296 303 312 345 4 17 9 61 86 149 164 145 132 137 139 136 141 145 154 158 158 161 160 162 163 164 165 164 164 165 166 164 161 156 154 153 153 153 154 153 150 147 143 141 139 138 136 135 135 136 141 145 144 143 141 138 140 140 139 136 134 133 130 127 122 122 120 120 115 116
201 205 211 218 219 226 212 202 245 221 207 243 237 246 247 197 235 249 245 262 302 58 77 261 233 237 272 301 298 288 0 53 57 70 76 109 146 144 133 132 138 137 136 141 142 147 151 157 160 159 162 162 163 162 162 163 164 164 161 158 155 153 153 155 156 156 154 150 147 145 144 141 140 139 138 137 137 142 147 147 146 145 144 144 143 143 139 136 137 134 130 125 125 123 121 118 116
212 203 199 207 216 233 237 205 240 243 217 233 229 235 235 193 221 227 249 319 356 24 290 253 241 218 223 232 243 252 94 72 73 89 105 137 142 132 133 137 136 134 136 140 142 145 147 156 159 158 160 160 161 160 161 161 161 160 158 156 153 153 154 157 158 156 154 151 150 148 147 146 146 143 138 137 137 139 145 146 144 146 145 145 145 144 141 139 140 137 134 130 130 126 121 120 119
214 211 202 205 210 219 237 223 228 248 241 237 234 222 213 212 213 103 89 324 350 264 232 213 203 200 250 245 216 277 73 75 69 84 115 121 130 139 139 141 137 135 138 141 144 145 149 158 158 157 157 157 158 158 159 157 158 157 156 155 153 155 157 159 158 157 155 154 153 151 150 150 149 145 139 137 136 135 141 143 142 144 144 145 144 143 143 142 142 142 138 135 134 126 123 123 121
215 217 220 227 224 222 237 233 229 241 247 250 254 197 184 176 97 91 133 200 213 239 230 219 189 144 267 305 29 33 57 65 69 78 96 96 124 140 144 146 140 139 140 143 146 145 154 158 157 156 155 156 156 157 156 155 156 156 155 155 156 158 159 161 160 159 158 156 155 154 154 152 150 147 145 144 140 138 143 145 143 143 143 146 146 146 146 145 145 144 140 136 135 126 123 124 121
217 211 220 238 260 298 252 234 231 232 244 257 281 49 85 88 88 135 198 190 199 238 249 238 212 165 192 71 55 52 45 33 93 83 94 114 140 143 147 149 141 140 140 144 147 148 155 157 156 156 155 156 156 156 155 155 156 156 157 157 159 161 162 163 161 161 158 157 157 156 154 153 152 151 153 152 146 143 144 143 141 142 144 146 146 145 144 146 147 146 144 139 132 128 127 124 120
210 200 202 227 251 268 245 240 233 234 231 243 271 47 84 73 79 233 228 218 196 202 226 242 244 191 164 132 93 67 58 24 79 84 95 122 144 147 150 148 135 131 139 146 148 150 154 155 155 156 157 157 157 157 156 157 158 158 159 160 161 162 163 163 162 161 158 159 158 157 155 154 156 157 160 156 151 150 148 142 136 139 144 144 142 140 139 144 151 150 147 141 136 137 137 129 121
217 214 192 218 232 212 232 244 239 250 221 220 257 15 78 30 319 258 235 233 207 190 196 198 233 223 155 137 101 76 68 43 73 89 100 123 139 147 152 143 127 123 140 146 146 150 154 154 154 156 157 158 159 158 157 158 159 159 159 160 160 160 162 162 162 160 159 161 158 158 156 155 160 163 160 152 152 156 155 147 135 135 140 142 141 137 137 140 148 152 149 143 146 149 146 136 127
221 222 206 222 240 221 229 244 237 250 236 208 242 253 19 277 265 269 249 237 238 216 203 186 212 226 166 132 106 100 81 62 88 98 110 127 136 147 151 132 120 128 142 141 142 150 154 155 155 156 157 158 159 158 157 157 157 157 158 158 159 160 162 164 163 161 162 162 158 158 153 154 159 158 153 149 151 154 155 149 139 135 134 138 139 139 143 146 150 151 151 146 145 152 156 151 137
211 217 228 225 243 238 227 237 235 243 243 227 232 237 349 256 252 258 251 240 225 230 220 185 204 215 175 134 116 114 87 92 110 111 119 128 137 149 142 123 124 134 138 135 139 149 154 156 157 157 158 158 158 157 156 155 155 156 157 159 161 163 164 165 164 162 162 160 157 154 151 151 150 150 150 148 151 151 151 147 139 135 131 134 138 139 142 145 145 144 146 147 146 152 159 152 126
211 209 240 239 238 242 234 234 227 232 233 226 238 218 158 253 258 255 252 252 240 238 210 177 217 208 165 114 103 108 103 124 128 119 126 133 138 144 119 113 125 128 132 138 141 149 153 156 159 159 158 157 157 156 155 155 155 156 158 161 163 163 163 163 163 162 162 159 153 151 148 145 142 146 145 144 151 149 147 145 138 133 128 133 138 135 133 134 133 136 149 156 158 157 152 145 132
224 203 225 240 238 240 243 242 232 231 211 197 220 179 130 244 250 247 243 242 238 244 202 174 217 201 170 110 96 119 126 139 129 125 131 131 133 134 111 110 123 122 137 147 143 150 153 158 161 160 158 155 156 155 156 156 155 157 158 162 163 161 161 163 165 163 161 159 155 151 148 146 143 143 139 139 146 143 143 145 140 136 133 134 138 136 135 140 141 144 160 168 166 162 156 159 159
234 221 223 235 249 251 249 254 254 268 240 218 206 121 108 248 243 239 240 238 227 238 207 168 196 207 162 108 107 122 133 136 127 132 132 130 132 120 101 108 125 123 140 146 142 149 156 163 160 157 158 155 156 155 157 158 157 158 159 163 162 160 164 166 168 165 161 160 158 156 153 150 146 142 139 138 140 139 141 146 148 146 140 137 139 141 142 148 152 152 162 175 173 170 172 174 168
233 240 245 245 248 255 261 264 255 262 251 213 153 81 238 246 253 248 248 246 229 234 190 142 188 216 140 101 137 149 137 136 132 136 133 129 122 105 94 104 119 120 138 143 141 151 159 163 157 156 158 154 154 154 158 160 159 159 158 161 162 163 166 168 166 164 163 160 158 157 154 150 145 140 138 138 141 141 141 145 152 152 143 141 143 147 152 156 163 164 168 174 177 179 185 186 168
234 250 259 260 253 253 249 252 262 269 249 119 111 8 253 227 248 249 238 241 226 203 112 122 201 221 166 162 167 158 153 145 144 140 135 125 108 100 96 99 103 110 133 144 142 152 162 163 156 156 157 156 155 153 157 160 159 158 157 158 160 163 167 166 160 161 164 160 157 154 152 149 144 141 140 144 147 143 143 146 151 151 144 143 148 152 157 163 171 180 181 180 183 182 185 189 167
238 260 256 253 252 252 234 231 247 260 128 94 114 209 240 196 213 252 234 243 215 129 171 151 184 267 149 146 103 133 148 148 147 137 133 122 106 102 100 95 94 102 126 149 147 150 162 164 157 158 163 163 159 155 156 158 158 156 154 152 156 163 167 163 156 159 159 157 156 150 149 146 143 142 142 147 149 144 144 149 149 147 146 146 153 155 157 160 162 164 168 172 175 178 179 179 163
229 248 250 244 242 247 246 222 218 247 91 91 78 147 254 194 177 253 246 246 215 155 196 153 148 69 93 110 104 123 140 146 145 138 138 129 115 111 112 104 94 98 121 144 148 147 160 166 161 161 168 166 163 159 155 155 155 151 149 151 159 166 164 160 156 156 153 154 155 148 142 138 141 145 146 151 152 150 151 155 151 148 150 152 154 155 158 157 157 152 147 141 147 168 171 169 161
225 227 238 240 239 238 245 237 217 277 60 71 50 139 263 269 160 207 210 225 195 162 176 131 129 93 88 109 118 127 139 146 145 148 148 140 130 123 126 114 102 106 120 135 145 150 160 166 163 164 168 166 165 161 154 154 154 152 154 158 164 165 159 158 157 157 156 158 158 150 142 141 149 152 154 156 156 156 158 159 154 155 158 157 157 156 159 163 164 158 142 127 125 148 153 156 164
227 229 234 237 243 245 255 292 341 322 11 38 26 165 261 307 188 166 197 203 160 169 177 157 136 108 105 117 126 137 145 147 148 155 152 147 141 130 129 120 114 119 124 134 148 158 164 167 168 166 167 166 163 160 156 157 158 159 161 161 163 161 158 161 161 163 166 164 165 159 151 156 163 162 160 160 163 160 160 161 158 162 163 163 163 160 164 172 174 162 136 123 122 137 148 162 173
226 232 238 234 242 258 297 331 298 300 336 322 319 307 248 264 270 163 187 187 174 189 176 172 156 124 124 130 138 144 147 149 150 156 148 145 140 134 133 127 127 128 129 137 150 165 170 173 171 162 165 169 164 160 161 162 162 164 164 160 162 162 161 164 166 171 176 171 175 171 160 167 172 167 166 168 164 159 163 165 164 167 170 171 168 168 175 178 181 173 139 125 135 160 173 183 177
221 226 242 242 241 265 282 235 255 273 317 298 308 276 239 205 229 200 196 187 188 195 170 183 160 124 130 148 152 145 148 149 150 156 146 144 138 137 140 131 132 130 133 141 150 164 174 181 173 157 161 167 165 162 165 167 166 167 164 162 163 162 161 168 174 179 182 180 187 180 158 173 182 170 172 176 163 163 171 171 170 171 174 176 173 175 183 186 182 179 161 148 169 188 188 183 174
226 230 239 252 260 284 273 226 238 294 273 263 257 255 272 343 222 219 219 198 194 202 168 171 133 123 142 159 155 150 152 151 154 158 144 143 141 142 142 134 134 133 139 147 150 159 171 180 175 164 160 164 165 162 165 166 165 166 164 165 165 160 161 169 175 183 193 191 195 184 159 175 184 173 178 178 174 183 179 174 180 180 184 183 182 184 186 189 180 182 191 185 185 177 171 174 173
228 238 233 248 261 269 268 236 125 236 254 242 243 275 332 281 238 218 236 219 167 181 137 106 118 131 151 154 154 159 157 156 155 151 143 147 151 149 146 141 143 142 145 150 151 156 164 172 174 172 164 164 165 162 162 161 161 163 165 168 163 162 166 170 175 188 204 200 198 187 165 178 184 178 186 182 182 194 184 181 187 186 196 193 194 193 182 186 176 182 201 190 177 166 168 174 171
224 244 235 237 246 244 253 260 204 219 243 247 257 293 276 249 245 199 231 234 126 147 138 166 155 140 151 148 158 171 158 151 147 145 147 155 157 148 147 150 151 148 146 149 150 153 160 164 168 169 161 159 162 162 162 163 162 161 167 169 163 173 173 171 180 187 198 200 201 193 164 179 203 191 191 187 186 196 187 186 189 186 197 199 203 195 175 183 175 174 191 181 172 167 168 175 169
223 242 247 240 238 238 242 249 246 233 236 245 247 264 250 238 260 228 224 212 140 157 170 183 187 155 154 150 162 171 153 143 147 154 157 161 155 147 154 155 151 151 149 150 149 151 158 158 162 163 157 157 160 162 163 166 168 165 169 171 174 182 174 169 179 181 188 197 204 205 181 191 211 210 202 196 191 198 186 182 191 193 198 203 205 196 175 180 170 164 177 170 165 164 168 174 166
219 234 245 245 237 234 237 239 240 237 233 237 236 243 241 234 261 260 229 203 135 163 185 174 178 168 146 140 153 160 148 146 153 158 165 167 156 156 163 155 154 158 152 151 150 154 159 157 159 159 156 157 157 160 164 166 171 172 172 174 181 182 175 177 178 182 189 193 200 201 219 209 206 225 229 216 192 194 188 177 190 196 195 203 203 190 171 168 160 158 169 164 163 162 159 163 162
226 237 241 242 239 231 231 235 233 233 229 229 234 236 235 222 218 241 222 188 155 182 186 172 183 167 139 131 139 149 149 150 159 163 172 173 161 166 166 153 155 157 155 156 154 156 157 158 161 159 156 156 157 159 161 165 170 174 173 175 179 174 174 180 183 200 201 200 194 181 226 227 206 221 234 223 199 198 202 186 194 197 192 202 202 181 164 162 154 156 164 155 151 149 147 161 160
243 253 252 242 239 236 233 237 229 229 229 221 231 238 237 213 206 239 218 165 178 197 179 184 200 162 137 133 136 151 156 155 166 171 179 175 163 171 166 154 157 157 161 161 155 155 157 160 163 162 161 159 161 159 158 163 166 169 172 173 173 170 170 176 197 213 209 200 185 194 226 227 210 217 225 217 205 202 209 203 204 202 193 198 196 174 161 159 154 154 153 141 135 133 138 148 147
242 245 257 245 236 235 232 234 225 223 226 215 220 233 235 215 213 238 214 155 191 204 184 200 204 152 132 138 151 164 166 172 178 175 182 173 158 170 163 152 159 162 163 158 152 155 159 159 160 162 163 161 162 161 159 161 162 167 172 166 161 161 168 184 203 209 205 186 183 224 230 222 218 222 223 211 208 211 213 215 209 202 197 199 193 168 158 158 156 153 149 144 137 132 134 133 142
242 237 242 248 237 231 223 223 221 219 221 212 210 223 230 217 213 229 210 169 202 206 191 214 201 142 135 148 160 166 174 192 187 174 180 168 154 166 156 147 162 165 158 156 153 156 159 154 156 164 167 166 165 161 160 162 164 164 161 154 146 147 171 191 200 208 207 184 189 230 229 228 223 221 222 209 212 221 213 212 207 198 192 196 190 168 167 165 157 158 154 149 143 136 131 127 135
235 234 232 242 242 233 213 209 212 212 209 197 206 232 233 221 208 213 210 180 201 212 193 211 187 133 142 156 157 166 185 203 187 175 179 164 156 160 151 150 165 164 154 156 155 155 156 151 155 166 173 176 170 163 164 169 171 168 155 145 147 154 177 192 204 221 224 213 210 212 227 236 225 222 227 211 213 223 216 209 204 197 187 191 189 179 180 165 155 163 158 148 144 140 132 125 127
222 230 228 224 234 247 215 195 200 206 198 187 208 239 236 243 222 198 197 183 200 218 199 207 178 141 149 158 158 169 192 207 187 176 172 161 156 151 152 157 164 160 151 155 155 153 154 153 156 166 175 176 164 162 169 166 154 159 152 143 158 173 189 204 219 230 236 232 221 218 232 235 223 228 229 214 213 215 214 206 193 185 178 188 194 187 187 162 152 160 153 149 148 146 140 133 132
213 220 233 223 217 243 220 179 190 206 201 190 207 233 232 250 235 173 170 185 207 219 207 209 175 144 149 154 164 169 190 210 193 178 170 162 156 147 150 158 161 156 149 151 151 153 158 157 161 169 171 165 159 157 156 146 121 130 147 157 169 179 197 215 212 217 231 224 218 227 234 221 207 225 224 216 214 210 212 198 180 171 168 185 190 179 190 164 150 152 145 152 155 156 152 143 142
212 211 228 233 219 231 218 175 184 205 212 203 201 225 243 237 146 141 169 195 212 218 214 203 161 148 162 167 173 170 190 210 197 184 173 163 155 147 148 153 154 150 146 145 144 154 164 163 167 165 153 148 159 159 143 155 149 143 156 166 170 171 184 200 191 198 217 215 214 220 224 210 203 218 218 216 216 212 211 182 178 169 161 188 184 170 188 162 144 158 152 160 170 169 159 148 150
215 212 216 232 227 223 222 197 181 199 211 211 199 208 240 238 161 156 186 200 214 218 218 199 166 167 172 169 170 173 196 205 197 186 173 166 155 147 148 147 148 144 138 131 134 150 163 166 167 151 147 147 156 165 156 161 161 151 157 163 170 172 173 181 181 187 197 203 202 195 204 206 202 206 204 211 215 213 206 177 173 156 150 194 190 178 193 179 156 169 162 168 182 179 164 146 141
222 219 214 226 228 215 229 222 165 190 207 204 214 212 221 238 224 188 182 198 218 220 218 207 184 174 162 164 176 187 198 190 193 187 169 163 152 145 142 141 143 130 116 113 128 151 158 166 164 146 154 159 157 166 155 153 166 166 167 166 166 164 159 159 160 163 168 174 175 171 179 178 181 191 189 201 212 205 204 186 169 152 153 196 194 174 189 196 181 175 173 181 184 181 173 159 148
248 230 218 223 229 208 224 222 153 185 217 198 218 229 217 228 233 216 191 192 213 222 215 212 205 175 158 173 181 188 192 174 190 192 170 159 146 136 128 130 129 108 103 126 150 168 168 169 168 151 157 159 155 162 156 169 183 176 168 160 148 141 141 142 136 130 132 139 148 150 153 148 150 170 176 187 195 183 185 187 177 161 161 187 193 169 177 191 178 173 177 180 185 183 177 172 171
270 248 231 221 228 216 213 205 156 175 222 210 212 226 229 223 226 230 208 186 203 223 215 211 215 183 156 169 175 186 192 166 178 194 174 150 128 117 112 120 123 117 140 176 173 168 164 169 170 151 148 154 157 167 176 190 185 155 140 133 127 126 127 131 127 117 117 125 132 132 134 139 147 162 165 162 170 176 176 176 181 162 151 167 183 167 167 177 170 173 178 177 187 192 187 174 175
250 254 249 225 221 221 209 182 147 170 203 227 223 222 230 222 225 235 207 180 202 219 214 210 215 196 160 167 177 185 192 169 172 187 159 120 117 125 129 135 142 144 163 183 170 148 151 156 136 110 109 129 154 159 162 156 110 104 102 92 91 96 97 97 104 107 110 112 108 114 125 135 148 156 154 154 162 171 175 166 162 151 139 155 179 170 164 167 169 179 189 189 188 192 196 181 192
239 243 241 236 214 214 212 172 167 196 201 236 243 228 228 224 226 228 195 191 214 210 213 212 214 205 163 161 180 179 188 185 165 141 87 99 137 142 140 144 150 154 159 161 139 128 148 116 67 81 100 134 154 127 107 97 93 97 93 84 81 87 95 95 97 99 99 100 95 93 106 121 137 142 151 163 164 164 176 178 174 181 160 154 176 182 171 169 172 179 188 195 201 205 198 177 209
226 235 237 238 216 214 227 177 178 200 203 236 255 241 229 224 218 212 193 214 217 190 206 218 219 213 153 147 187 187 189 189 138 111 111 198 175 141 140 147 147 149 144 134 129 137 152 141 107 119 131 158 160 122 115 113 107 104 98 98 94 99 112 116 112 106 102 104 98 92 93 102 116 122 135 146 142 153 170 175 173 177 166 154 162 174 177 179 181 180 180 186 208 226 206 170 201
218 223 236 246 233 213 199 158 174 209 206 209 224 238 233 214 208 206 195 207 205 182 203 213 212 215 169 150 181 186 173 126 97 126 174 193 174 144 142 142 131 124 118 122 136 146 150 146 151 143 138 156 154 130 137 130 116 115 111 114 116 121 127 124 122 121 118 113 104 103 100 97 106 114 121 122 127 142 140 148 169 156 156 159 159 160 165 179 182 180 179 185 204 228 217 188 197
227 201 218 245 256 229 202 181 192 226 226 189 199 230 241 201 205 205 189 191 196 191 203 207 203 206 191 165 170 174 144 99 101 173 189 172 155 146 139 131 121 116 114 124 135 135 134 134 144 144 135 142 148 143 147 131 118 124 125 123 125 129 122 114 117 117 113 107 105 112 108 106 116 120 129 132 135 144 141 155 194 182 179 181 165 162 169 184 190 189 191 192 200 209 211 209 198
244 189 197 224 240 238 224 214 219 229 239 179 196 228 245 211 205 190 180 186 190 192 199 206 202 195 198 188 166 152 131 123 155 199 195 167 149 142 137 129 126 129 134 145 149 139 134 131 123 126 132 142 157 162 147 131 131 136 132 124 113 113 115 117 119 114 110 109 114 122 121 124 124 120 129 131 126 131 134 144 154 183 180 175 169 161 170 186 188 189 191 189 193 194 199 218 203
240 197 183 210 223 230 229 225 234 233 232 215 207 223 233 215 199 173 176 192 188 187 191 200 203 192 200 189 145 133 139 149 171 188 184 167 147 141 138 129 128 135 141 149 155 152 149 148 135 126 131 140 150 153 144 141 144 139 128 118 109 112 121 126 126 118 115 119 123 124 122 121 117 114 122 122 120 120 115 111 108 108 108 125 142 134 138 152 154 159 162 158 168 171 168 180 180
245 209 181 209 217 222 227 225 233 230 231 238 213 209 221 205 180 171 185 198 187 184 189 192 195 197 202 170 126 133 154 157 164 166 166 157 140 133 134 128 122 122 127 137 146 153 164 168 160 149 141 137 141 144 144 147 144 138 134 127 119 123 133 136 129 124 125 129 132 130 131 131 128 126 120 116 106 92 95 98 93 96 88 76 83 102 120 130 135 139 138 135 135 140 146 149 163
235 214 205 213 210 215 226 228 236 230 227 239 216 203 220 211 174 179 189 197 191 185 181 172 176 194 193 144 123 143 153 148 154 154 154 147 134 129 131 130 124 124 140 157 158 159 167 177 179 169 156 156 161 157 150 146 147 154 153 139 127 130 141 144 137 139 143 142 142 143 146 144 137 136 127 115 98 87 90 95 97 95 84 79 80 89 110 124 129 130 129 129 126 124 127 132 141
204 214 212 203 199 205 215 215 223 225 225 233 212 197 216 220 167 156 123 93 108 161 146 132 145 182 162 135 142 150 139 137 149 155 154 142 133 133 134 134 140 151 163 170 166 160 164 174 180 171 162 171 176 170 163 155 156 165 160 148 140 138 146 151 149 151 152 151 152 151 149 143 139 139 131 117 106 105 106 103 100 94 83 80 84 86 93 106 120 127 131 132 127 125 126 130 136
212 219 212 201 197 196 209 210 207 215 225 227 204 194 206 191 106 96 90 78 68 95 115 119 126 214 167 153 157 140 124 132 148 157 155 141 135 138 138 142 158 170 169 163 158 157 159 165 170 167 168 180 182 174 169 165 164 166 159 155 151 148 150 151 150 151 152 153 153 153 150 146 144 138 128 120 116 117 117 111 100 89 86 82 81 84 82 85 100 111 119 121 118 118 119 120 120
208 215 211 206 200 196 211 212 206 210 211 205 194 191 199 170 124 103 88 83 93 106 118 125 139 198 184 153 147 142 142 145 152 157 150 142 140 142 147 159 171 173 159 153 155 156 157 163 169 172 172 175 173 167 169 170 168 164 159 156 152 149 149 148 150 151 152 150 150 155 152 145 141 134 126 121 121 120 111 106 100 91 90 89 85 84 79 79 89 93 95 100 97 96 99 100 100
205 221 223 215 209 210 219 222 220 215 195 186 184 190 213 194 133 121 132 129 108 108 116 120 134 164 159 140 140 145 146 142 147 154 147 143 144 146 154 163 165 159 154 156 156 154 158 166 173 176 170 164 158 157 167 172 166 160 155 152 150 147 144 144 145 145 149 149 148 152 147 139 135 130 126 119 114 113 108 108 107 100 97 96 93 90 86 85 94 98 92 92 93 91 94 98 94
199 221 228 221 217 221 228 197 33 294 226 187 180 185 170 132 132 137 140 129 109 103 109 116 121 124 116 115 123 129 131 132 141 151 142 139 141 147 154 155 153 153 158 158 153 153 158 166 177 180 178 186 192 177 167 168 165 160 157 154 149 145 143 141 140 141 145 144 144 148 142 134 129 123 122 121 117 115 114 114 111 107 103 100 95 91 91 93 99 105 99 92 95 96 95 97 94
196 215 226 220 221 237 241 192 135 272 256 196 182 192 133 125 154 156 135 121 112 107 105 108 107 105 104 101 108 116 118 122 133 143 138 136 141 144 143 142 147 155 166 161 156 161 167 172 178 179 182 197 204 190 167 164 164 161 161 158 148 144 144 143 142 142 143 142 142 143 138 134 130 127 126 123 120 117 114 114 112 108 105 100 96 94 97 101 101 104 102 96 94 93 92 90 90
223 215 218 211 227 251 259 234 186 207 231 209 193 204 184 165 176 163 141 126 120 118 115 113 109 103 98 94 99 108 108 108 115 126 130 132 138 139 135 137 142 156 176 172 165 171 174 176 178 177 185 197 195 179 169 169 166 162 161 158 150 146 146 145 144 145 146 146 141 137 139 140 135 132 131 128 125 121 116 115 113 111 108 103 101 102 103 105 103 101 99 95 93 93 93 91 90
253 263 232 212 227 230 223 233 215 208 224 220 199 204 207 194 183 173 153 123 120 127 124 116 108 103 100 96 98 105 109 110 111 118 125 129 135 137 139 142 138 148 174 172 171 180 181 183 182 178 187 191 174 164 172 175 173 167 161 159 154 149 147 146 148 150 152 152 148 141 141 142 139 136 135 134 134 132 128 123 119 117 115 110 107 107 106 105 104 103 100 97 97 99 99 98 98
236 270 258 222 235 240 221 226 232 224 224 221 208 202 196 48 132 158 135 111 115 120 114 106 100 101 105 105 103 103 107 114 116 119 126 137 146 147 151 158 156 161 175 175 178 188 191 195 193 188 190 187 172 171 177 180 181 175 164 161 158 153 150 149 152 157 158 159 159 153 149 147 143 144 145 142 142 143 139 134 129 125 121 118 115 112 110 109 108 109 109 107 107 108 108 108 109
209 228 237 223 220 230 237 239 240 241 229 219 221 203 132 47 35 92 103 106 115 113 107 100 94 95 94 91 91 93 97 105 109 109 113 126 139 143 155 170 173 169 170 172 181 195 203 207 205 202 198 191 184 182 185 186 185 180 170 165 162 158 154 153 157 162 161 162 165 158 155 154 148 151 157 152 149 151 149 145 140 135 130 126 123 119 118 117 115 114 113 114 117 119 117 116 117
216 213 220 225 223 218 228 231 225 234 244 239 233 202 104 52 13 56 86 114 122 115 106 97 92 93 91 87 88 94 98 102 106 111 118 120 116 122 137 153 159 159 164 172 181 192 199 204 208 206 200 199 200 200 198 196 193 189 180 174 170 164 162 160 160 161 161 164 169 165 162 160 154 161 168 159 153 156 156 153 148 143 140 136 131 129 126 124 122 120 119 121 124 125 121 120 125
Height
776 777 777 777 775 774 772 771 779 772 770 774 758 751 738 719 718 727 731 727 731 724 717 720 720 722 726 729 726 722 722 730 742 749 758 750 740 742 741 742 748 750 755 760 761 765 768 771 772 774 776 777 779 780 782 783 784 786 788 791 793 795 797 799 800 802 803 804 805 805 807 807 809 810 810 811 812 813 814 815 816 817 817 818 819 819 819 819 819 820 820 820 820 821 821 821 821
776 777 776 777 774 774 769 766 780 770 770 776 755 746 730 717 728 732 730 727 728 723 718 720 720 722 723 724 723 726 728 728 734 740 745 740 740 743 742 747 750 753 757 761 763 767 770 772 773 775 776 778 780 781 782 783 785 787 790 792 794 796 798 800 801 802 804 805 806 806 808 808 810 810 811 812 813 814 814 815 816 817 818 819 819 820 820 820 821 821 821 822 822 822 822 822 822
777 777 775 776 772 771 766 766 780 771 767 769 752 736 722 725 732 728 727 727 725 722 723 722 723 724 725 730 727 730 734 730 731 736 739 739 740 742 745 749 751 756 759 763 766 769 772 773 774 776 777 779 780 782 783 784 787 789 792 794 796 798 799 801 802 803 804 806 807 807 808 809 811 811 812 813 814 815 815 816 817 818 818 819 820 821 821 821 822 823 823 823 823 823 823 823 823
775 775 773 772 770 771 770 772 774 768 762 755 744 726 718 727 726 726 730 728 726 724 726 725 728 723 725 735 727 730 739 734 732 734 738 738 739 743 746 750 753 757 761 765 768 770 772 773 775 776 778 780 781 784 784 786 789 791 793 795 797 799 800 801 802 804 805 806 807 808 809 810 811 812 813 814 815 816 817 817 817 818 819 820 821 822 822 823 823 824 824 824 825 824 825 824 824
775 774 772 769 770 769 768 769 765 765 759 743 735 722 717 723 726 731 731 728 727 726 726 726 732 727 726 731 726 738 745 737 733 732 737 739 741 744 747 751 754 756 761 766 768 771 772 773 775 777 780 781 783 785 786 788 790 792 795 797 798 799 801 802 803 804 806 807 808 809 810 811 812 813 814 815 816 816 817 818 818 819 820 821 821 822 823 823 824 825 825 825 826 826 826 826 826
774 773 771 769 766 761 766 770 763 761 748 733 731 724 721 725 731 735 730 728 726 725 725 726 731 731 734 730 728 739 741 738 736 734 737 742 744 745 748 752 755 758 762 765 768 770 771 774 777 779 781 783 785 786 788 790 791 794 796 797 799 800 802 802 804 805 806 808 809 810 811 812 813 814 814 815 816 817 818 818 819 820 821 822 822 823 823 824 824 825 826 826 826 827 827 827 827
772 771 770 772 767 763 772 770 759 753 738 728 728 726 727 730 733 734 732 731 728 727 727 728 726 731 740 733 735 739 736 737 735 737 740 743 746 747 750 753 757 761 763 765 767 769 772 775 778 781 783 784 786 787 789 791 793 795 796 798 800 801 802 803 805 806 808 809 810 811 812 813 814 814 815 816 817 818 818 819 820 820 822 822 822 823 823 824 824 826 826 827 827 827 828 828 828
770 768 766 773 771 765 771 765 753 744 730 723 722 724 730 733 733 733 734 733 731 729 727 729 725 735 739 731 745 743 736 739 736 741 743 744 748 749 752 754 759 763 764 765 768 770 773 776 779 782 784 785 787 788 790 792 794 795 797 799 801 802 803 805 806 807 809 810 811 812 813 813 814 815 816 817 818 818 819 820 821 821 822 823 823 824 824 825 825 826 826 827 827 828 829 829 829
768 767 764 771 770 765 765 760 751 739 728 723 722 724 729 733 734 733 734 733 730 727 726 726 725 737 737 734 748 742 738 743 740 743 744 748 750 751 754 757 762 763 765 768 771 773 774 777 780 782 784 786 788 790 791 793 795 796 799 800 802 803 804 806 807 808 809 811 812 813 813 814 815 816 817 818 818 819 820 820 821 822 822 824 824 824 825 825 825 826 827 827 828 829 829 829 830
766 765 764 768 769 766 763 756 747 737 728 723 724 726 729 733 733 733 734 732 728 728 723 719 724 732 734 740 749 744 743 744 742 745 746 750 751 753 756 760 764 764 768 771 774 776 777 779 780 783 784 786 789 791 793 795 796 798 799 801 803 804 806 807 808 809 810 811 812 813 814 815 816 817 818 818 819 819 820 821 821 822 823 824 825 825 825 825 826 826 827 828 828 829 829 829 829
767 763 761 768 770 767 760 751 743 735 725 723 726 726 729 733 734 734 733 731 726 726 722 721 730 730 733 743 749 746 745 744 743 746 748 751 753 755 758 762 765 766 771 774 776 778 780 782 783 785 786 788 790 791 794 796 797 799 800 802 805 806 807 808 809 810 811 812 813 814 815 815 817 818 819 819 820 820 821 822 822 823 824 825 825 825 826 826 826 827 828 828 829 829 829 829 829
768 763 761 770 768 760 751 744 738 729 724 727 730 725 728 732 735 736 734 733 727 727 723 725 730 727 739 751 749 745 744 745 744 747 750 752 754 757 760 764 766 768 772 775 778 780 783 784 785 787 788 790 791 793 795 797 799 800 801 803 805 807 808 809 810 811 812 813 814 815 815 816 817 818 819 820 820 821 822 822 822 824 824 825 826 826 826 827 827 827 828 829 829 829 829 829 829
765 759 761 768 759 751 745 740 734 731 732 729 728 725 729 732 734 733 731 730 727 730 723 720 725 725 741 753 751 748 748 747 746 749 751 753 756 758 762 765 768 770 773 776 779 782 784 785 787 790 790 791 792 794 795 797 800 800 802 804 805 806 808 810 811 812 813 814 815 816 816 817 818 819 820 821 821 822 823 823 823 824 825 826 826 826 826 827 827 828 828 829 830 830 829 829 829
760 754 757 762 754 748 743 740 735 738 738 725 723 726 729 731 730 727 728 732 728 725 716 713 721 730 744 753 755 752 750 749 748 751 752 754 757 759 764 767 770 771 774 777 779 782 784 786 789 792 792 792 793 794 796 798 799 801 803 804 805 806 808 809 811 813 814 815 816 816 817 818 819 820 821 822 822 823 823 823 824 825 825 826 826 826 826 827 827 827 828 829 829 830 830 829 829
756 750 754 760 756 750 743 741 738 740 735 724 728 729 729 728 726 728 727 731 725 713 712 716 721 734 747 754 755 750 749 751 750 752 753 756 758 762 766 769 773 774 777 778 779 783 785 787 788 791 793 793 794 795 797 799 800 801 802 804 805 806 808 809 810 812 814 816 817 817 818 818 820 820 821 822 822 823 823 824 824 825 826 827 826 826 826 827 827 827 828 828 829 829 829 830 830
751 751 757 762 759 753 742 737 739 743 734 727 729 727 731 728 724 728 721 720 720 714 720 726 726 731 741 748 748 744 749 751 752 754 755 758 760 764 767 770 775 775 777 779 780 782 783 786 787 790 793 794 794 795 797 799 801 802 802 804 805 806 808 808 810 812 814 816 817 818 819 819 820 821 821 822 823 823 823 824 825 825 826 827 827 826 827 827 827 828 828 828 828 828 829 829 830
750 756 764 764 758 752 740 735 739 739 731 729 729 728 733 729 723 724 717 716 723 724 726 727 727 729 737 745 744 744 750 752 753 755 755 758 761 764 767 770 775 776 778 779 781 782 782 785 786 788 791 794 794 795 798 799 801 802 803 804 805 807 807 808 810 812 814 816 818 818 819 820 821 821 822 822 823 823 824 825 825 826 827 827 826 826 827 827 828 828 828 828 828 828 829 829 830
754 762 766 762 754 745 735 731 731 729 730 733 732 731 733 730 727 723 723 725 725 729 730 729 730 732 739 744 744 748 752 753 754 755 755 757 760 763 766 770 774 777 779 779 780 781 782 785 787 789 790 792 794 796 798 799 801 802 803 804 806 807 807 808 809 811 814 816 817 819 820 821 821 821 822 822 823 824 825 826 826 826 827 827 826 826 826 827 827 828 828 828 828 828 829 830 831
756 760 762 758 746 735 725 726 728 729 734 736 733 732 733 732 727 724 732 734 731 737 736 732 736 741 745 745 747 751 753 755 755 754 755 756 759 762 765 770 774 777 778 778 779 781 782 783 786 788 789 791 793 796 798 799 800 802 803 804 805 806 807 808 809 811 813 816 818 819 820 821 821 821 822 823 824 825 826 827 827 827 827 827 827 826 826 827 827 828 828 828 827 828 828 830 831
754 755 758 751 738 729 725 729 732 732 735 737 735 733 733 731 726 726 735 737 736 739 737 734 739 746 751 750 749 752 753 755 755 754 755 756 759 761 765 770 773 776 778 779 780 781 782 783 785 787 788 790 793 796 798 799 800 802 803 804 806 806 807 808 810 812 813 815 817 819 820 821 821 821 822 824 824 826 827 827 827 827 827 827 827 826 826 827 827 828 828 828 827 828 828 829 830
751 752 754 742 732 733 730 731 733 732 735 738 737 736 735 729 726 728 732 740 741 735 731 731 735 742 750 752 750 752 754 753 754 755 755 757 760 762 765 769 773 776 777 779 780 780 781 783 785 786 787 790 793 795 796 797 800 802 804 805 806 806 807 809 810 812 813 815 817 819 821 820 820 820 822 824 825 826 827 828 828 828 827 826 826 826 827 827 827 828 828 827 827 828 828 829 830
750 747 745 737 732 737 734 730 734 736 738 740 739 738 734 729 729 729 730 741 741 730 725 724 730 739 745 749 750 751 753 753 754 755 756 758 760 762 765 768 773 775 777 778 779 780 781 782 784 786 787 790 792 794 795 796 799 802 804 805 805 806 807 808 810 811 812 814 817 819 822 822 821 821 822 823 825 826 828 829 829 829 828 826 826 826 827 827 828 828 828 827 827 828 828 829 829
752 746 739 738 735 739 736 731 737 740 741 742 739 735 733 735 734 728 728 732 729 723 721 722 728 735 739 743 748 750 753 753 754 755 757 759 761 763 765 768 771 774 776 777 779 780 781 782 784 785 788 790 791 793 795 796 799 801 803 804 805 806 807 808 810 811 812 814 816 818 821 823 822 822 822 823 826 827 828 829 829 829 828 826 825 826 826 826 827 827 827 827 827 827 828 828 829
750 747 739 738 736 738 737 734 737 739 742 740 736 736 738 741 735 729 729 725 723 723 723 724 726 731 737 742 748 751 751 752 755 757 758 759 761 763 765 768 770 772 775 777 778 780 781 782 783 785 788 791 792 794 795 796 798 800 801 802 803 805 806 807 809 811 812 814 816 818 820 822 821 822 822 823 826 827 827 827 826 828 829 827 826 826 826 825 825 826 827 827 827 827 827 828 828
745 747 740 736 736 738 737 737 737 737 740 738 737 741 740 737 732 731 731 724 723 725 724 725 726 730 737 743 750 751 750 753 756 758 758 760 761 763 766 767 769 772 774 775 777 779 781 781 783 785 787 790 792 793 793 794 796 798 799 800 801 804 806 807 809 811 812 814 816 818 820 821 820 821 821 822 824 825 825 825 825 827 828 828 826 825 824 824 824 825 826 826 826 827 827 827 827
740 743 740 736 738 738 737 738 737 737 737 737 740 744 738 731 732 736 730 722 723 725 725 726 728 732 737 742 749 750 751 754 756 758 759 759 761 763 765 766 768 771 773 775 777 779 780 781 783 784 786 789 791 792 792 793 794 796 798 800 802 804 806 807 809 810 811 813 816 819 820 819 820 821 821 821 822 823 824 825 825 826 826 826 825 824 823 824 824 825 825 825 825 826 826 827 827
734 738 738 736 737 735 737 738 735 736 735 736 741 743 736 728 737 742 728 719 724 726 727 727 729 735 739 742 747 750 753 755 756 758 759 758 760 763 764 766 768 770 773 775 777 778 780 781 783 784 786 788 789 790 791 792 794 796 797 800 802 805 807 807 808 809 811 813 816 819 818 817 819 821 822 822 822 822 823 825 825 825 824 824 823 822 823 823 823 824 824 824 825 825 826 826 827
734 737 739 736 735 735 736 736 734 736 735 734 737 741 735 729 738 738 722 718 724 726 729 730 730 735 742 746 750 753 754 756 757 756 757 757 760 763 763 765 768 770 772 774 776 778 779 781 782 784 786 787 789 790 791 792 793 796 798 801 803 805 806 807 807 809 811 813 816 817 816 816 819 821 821 822 822 822 823 824 824 824 823 822 822 821 822 822 822 824 824 824 825 825 826 826 827
736 738 745 742 737 738 736 734 734 735 736 730 734 745 741 734 738 730 718 720 724 726 730 731 730 735 746 751 752 755 755 755 756 755 756 758 760 762 763 765 768 770 772 774 776 778 779 781 783 784 786 788 789 790 792 793 795 797 800 802 804 805 806 806 807 808 811 813 815 815 816 817 820 821 821 821 822 822 823 824 823 823 823 823 822 820 821 822 822 823 824 824 824 825 826 826 828
739 738 746 745 741 739 732 730 731 733 734 725 734 754 748 733 732 725 717 721 726 728 731 730 729 736 748 752 754 757 756 754 754 755 757 759 761 762 763 766 768 770 772 774 776 778 780 781 783 785 786 788 789 791 793 794 797 799 801 803 805 806 806 806 807 809 811 812 813 815 817 819 820 820 820 820 821 821 822 822 823 823 823 823 822 820 821 821 822 823 823 823 824 825 826 827 828
743 743 745 745 746 737 722 723 729 733 731 723 736 754 744 727 723 720 715 719 726 729 729 729 731 740 749 752 755 758 755 754 755 756 758 760 762 762 764 767 769 770 771 774 776 777 780 781 783 785 787 789 790 792 794 796 799 800 802 804 806 806 807 807 808 809 810 812 813 815 817 817 818 818 818 819 820 820 820 820 822 822 823 822 821 821 822 821 821 822 822 823 824 824 826 827 828
742 749 750 743 744 735 716 715 723 730 729 724 739 750 739 723 713 710 712 717 725 727 727 728 732 743 751 755 757 759 756 755 755 757 759 761 762 763 765 767 769 770 772 775 777 778 780 782 784 785 787 789 792 795 797 800 803 804 806 807 807 808 808 809 809 809 810 811 812 813 814 814 815 816 817 817 819 820 819 819 820 821 822 821 821 822 823 822 822 822 823 823 824 824 825 827 828
740 746 750 738 739 735 718 714 717 723 727 727 736 743 736 721 706 703 711 719 724 726 726 727 733 742 752 758 758 759 758 756 755 755 758 760 761 764 766 768 770 771 774 776 778 780 782 783 785 787 789 791 794 796 799 803 807 808 808 808 809 809 809 810 810 809 809 811 811 812 812 813 813 814 815 815 817 818 817 818 819 820 821 820 821 822 822 822 822 823 823 824 824 824 825 827 829
740 739 742 734 731 732 723 719 718 719 725 727 732 737 731 717 709 711 715 720 723 726 726 727 735 744 751 756 756 757 759 758 757 755 756 759 760 764 767 769 772 773 776 778 780 782 783 784 786 787 790 794 795 797 801 804 806 807 808 808 810 810 810 811 810 809 810 811 811 811 811 811 812 813 813 813 815 815 815 816 818 819 820 819 820 822 822 822 823 824 824 824 825 825 825 827 829
739 737 739 736 727 725 722 717 717 718 723 726 730 736 731 717 713 717 718 719 723 724 723 725 734 742 747 752 754 758 758 757 758 755 755 758 759 764 767 771 775 776 778 780 782 784 784 784 786 788 791 795 797 799 802 803 802 805 808 808 809 810 811 811 811 810 811 811 810 810 810 810 810 810 811 812 813 813 813 814 816 819 819 818 819 822 822 822 823 824 824 825 825 825 826 827 828
728 728 731 734 726 723 719 709 709 716 723 728 730 731 729 721 715 715 718 720 722 723 721 723 730 736 745 753 757 758 757 755 756 754 755 758 760 765 769 772 776 779 781 784 785 785 784 784 786 788 791 794 797 799 802 802 802 804 806 807 808 809 810 810 810 810 810 810 809 809 809 809 809 809 810 810 811 812 812 813 814 817 819 817 818 822 822 823 824 824 824 825 825 825 827 828 829
721 721 724 727 723 722 717 709 710 715 723 728 727 725 724 722 717 713 715 719 723 724 723 724 727 734 746 754 754 754 753 753 754 754 754 758 762 767 771 774 778 782 785 786 785 783 783 785 786 788 791 795 797 799 802 804 804 804 804 805 806 807 809 809 809 810 809 809 809 808 808 808 809 809 809 809 810 811 812 812 814 817 819 817 817 821 822 822 823 824 825 825 826 826 827 828 830
728 725 724 724 722 719 712 709 712 716 726 728 722 725 724 719 718 713 712 719 726 724 724 726 725 730 742 749 752 752 749 748 753 754 753 758 764 769 773 775 779 783 784 783 782 783 785 786 788 790 793 797 800 803 805 805 803 803 803 804 805 806 808 808 809 809 809 809 808 808 808 808 808 809 809 809 810 811 812 813 814 816 819 818 818 820 822 822 824 824 825 826 826 826 827 828 830
736 730 728 727 720 716 709 708 714 720 730 731 722 725 724 716 717 713 710 717 724 721 720 723 722 727 738 746 749 750 747 747 753 756 758 763 767 767 770 773 775 778 779 780 783 786 788 789 791 794 798 801 804 805 805 803 801 802 802 803 805 806 807 808 809 809 809 809 809 809 809 808 809 809 810 810 811 811 812 814 815 817 819 820 819 820 822 823 824 825 825 826 826 826 827 828 829
740 735 733 729 718 719 718 715 721 722 726 729 722 722 722 718 717 712 710 716 719 717 717 718 718 721 732 742 744 744 745 746 754 764 769 769 766 766 770 774 775 776 780 783 787 790 790 792 795 796 797 800 802 802 801 800 801 801 802 803 804 806 807 809 809 810 810 810 810 810 810 810 810 811 811 811 812 812 814 815 816 817 819 821 820 820 822 824 824 825 825 825 826 827 827 828 830
740 735 732 726 717 717 718 717 722 723 725 726 725 731 729 720 719 716 713 716 716 717 721 722 720 719 729 746 748 744 744 745 755 770 774 767 764 768 772 775 777 779 782 785 787 789 790 793 798 798 797 798 800 800 800 800 801 802 803 804 805 806 808 809 810 810 811 811 811 812 812 812 812 813 812 812 813 814 815 816 816 817 819 821 821 820 821 822 823 824 825 825 826 828 827 829 831
738 734 729 721 713 712 716 721 727 735 738 728 728 747 740 716 717 719 717 719 719 721 726 727 725 722 730 747 749 743 745 748 757 767 767 764 765 769 772 775 779 782 785 787 787 790 792 794 799 800 798 799 800 801 802 802 802 803 804 805 807 807 808 809 810 811 811 811 812 813 814 814 814 815 815 815 815 815 816 816 817 817 819 820 822 822 822 822 823 824 824 824 826 827 827 829 830
736 727 723 721 714 713 717 722 731 740 738 723 723 744 741 722 718 716 715 721 723 723 725 724 724 723 727 739 744 742 746 756 764 764 761 764 767 769 772 776 779 782 785 787 788 790 793 796 799 800 799 800 802 803 803 804 805 806 807 807 808 809 809 810 811 812 812 812 813 814 815 816 816 816 817 817 817 817 818 818 818 818 819 820 822 823 822 822 823 823 823 824 825 826 827 828 829
732 716 716 723 720 719 719 722 729 729 726 723 721 727 736 735 724 712 713 722 724 724 725 721 718 720 723 727 735 740 746 759 767 765 760 763 766 768 771 774 776 779 780 782 785 789 792 795 798 800 802 803 805 806 805 805 807 808 808 809 809 810 811 812 813 813 813 814 815 815 816 816 817 817 818 818 818 819 819 819 819 819 820 820 821 822 823 823 823 823 823 824 825 825 827 828 829
723 707 712 719 720 721 719 723 727 721 726 737 726 720 737 742 723 710 714 721 723 723 722 721 716 717 719 722 734 746 749 756 763 763 761 761 765 767 769 773 776 779 780 781 783 786 790 792 794 798 802 804 806 806 806 806 808 809 810 810 811 812 813 813 814 814 815 815 816 816 816 817 818 818 819 819 819 819 819 820 820 820 820 820 820 821 823 823 823 824 824 824 825 826 827 828 829
713 703 712 716 717 718 718 723 723 722 736 744 728 720 737 744 725 716 721 721 721 721 718 717 716 716 717 721 737 753 755 755 758 759 761 762 765 768 769 773 777 782 786 788 788 788 790 791 793 796 798 801 803 805 806 807 808 809 811 812 812 812 813 813 814 815 816 816 817 817 818 818 819 819 820 820 820 820 820 820 821 821 821 821 821 822 823 824 824 824 825 825 826 827 828 828 829
710 712 717 718 717 716 719 720 720 735 749 739 723 718 729 740 728 716 721 718 714 716 716 717 718 719 719 722 736 750 754 755 756 758 762 765 768 769 770 773 776 779 781 784 786 787 788 790 792 793 795 799 802 804 807 808 808 810 811 812 812 813 813 814 814 815 816 817 818 818 819 819 820 820 821 821 821 820 821 821 821 822 822 822 822 823 823 824 824 825 825 826 827 827 828 829 830
716 720 719 725 727 724 728 727 727 750 756 731 716 715 723 742 737 719 718 718 712 714 719 723 726 724 724 728 736 741 746 751 755 760 765 767 770 771 771 773 774 774 773 777 783 786 787 789 790 792 794 799 802 804 806 807 808 810 811 812 813 813 814 814 815 816 816 817 818 818 819 820 820 821 821 822 822 822 821 822 822 822 822 823 823 823 824 824 824 825 825 826 827 828 829 830 830
720 721 721 733 741 742 746 742 739 749 746 723 713 718 728 742 743 729 723 724 722 721 724 729 733 731 730 732 734 736 743 754 759 763 766 768 770 772 772 772 772 771 773 779 785 788 789 790 792 793 795 799 802 803 805 806 808 809 810 811 813 813 814 814 815 816 817 817 818 819 819 820 821 821 822 822 822 822 822 822 822 822 823 823 824 824 825 825 825 825 826 827 827 828 829 830 831
722 721 722 735 746 758 761 750 743 744 739 721 712 723 735 737 739 735 730 731 728 725 728 731 733 735 732 731 735 740 746 755 761 762 764 768 769 771 772 771 771 773 777 781 785 788 790 791 793 796 798 801 802 803 804 806 807 808 809 811 812 813 814 814 816 817 817 818 818 819 820 820 821 822 822 823 823 823 823 823 823 823 824 824 825 825 825 826 826 826 827 828 828 829 830 831 832
719 712 712 725 735 748 755 747 743 743 736 726 722 731 738 737 738 734 732 734 728 727 730 730 732 733 729 728 735 742 744 749 757 759 761 765 767 769 770 770 771 774 778 779 781 784 788 791 794 796 799 799 799 801 804 806 807 808 809 811 812 813 814 815 816 817 818 819 819 820 820 820 821 822 823 823 824 824 824 824 824 824 825 825 826 826 827 827 827 828 829 829 829 830 831 832 833
714 705 710 723 721 724 737 741 740 740 739 734 732 735 732 733 736 728 728 733 728 729 731 731 733 731 728 730 736 742 745 747 754 757 759 764 767 768 769 770 772 774 777 778 779 782 785 788 792 794 794 795 796 799 803 805 807 808 809 811 812 813 814 815 816 818 819 819 820 821 821 821 822 823 824 824 825 825 825 825 825 825 826 826 827 827 828 828 829 830 830 830 831 832 832 833 834
712 711 715 713 704 710 729 739 737 742 751 741 732 736 734 736 740 728 726 734 732 733 735 734 736 734 733 735 737 743 747 749 754 757 760 765 768 769 770 770 772 774 776 777 777 779 781 783 786 789 791 792 795 798 801 804 806 807 809 811 812 813 814 816 817 818 820 820 821 821 822 822 822 823 824 825 825 826 826 826 826 827 827 827 828 828 829 830 830 831 831 832 832 833 834 834 835
710 717 711 703 705 710 721 737 742 748 756 742 730 737 737 742 749 735 729 738 741 740 741 739 739 739 740 740 740 744 749 751 755 757 760 765 768 770 771 772 773 774 776 776 777 778 780 781 784 787 790 792 795 798 801 804 805 807 809 810 812 813 814 816 817 819 820 821 821 822 823 823 823 824 824 825 826 826 827 827 827 828 828 829 829 829 830 831 831 832 832 833 833 834 835 836 837
704 708 700 705 726 729 726 739 748 752 756 745 734 733 732 737 743 736 735 741 743 743 743 742 742 742 744 746 745 746 750 753 757 760 763 765 769 772 773 774 774 775 777 779 780 781 782 784 786 789 791 793 796 799 802 804 805 807 809 810 812 813 814 816 817 819 820 821 822 822 823 824 824 825 825 825 826 827 828 828 828 829 829 830 830 831 831 832 832 833 833 834 835 835 836 837 838
704 706 702 704 719 725 726 731 735 742 750 749 743 738 739 741 735 732 739 742 741 743 744 743 744 745 746 748 749 750 752 755 758 761 764 765 768 772 774 776 777 778 779 780 782 783 785 787 789 790 792 794 797 799 801 803 805 806 808 810 812 813 814 816 817 819 821 822 823 822 823 825 825 825 826 826 826 827 828 829 829 830 830 831 831 831 832 832 833 834 835 835 836 837 837 838 840
711 718 718 714 714 716 724 727 723 727 739 746 746 745 751 752 741 738 743 743 741 743 744 745 746 747 749 752 754 756 758 759 760 762 766 767 768 771 775 778 779 780 782 783 785 786 788 789 790 792 793 795 797 799 801 803 804 806 808 809 811 812 814 816 817 819 821 822 823 823 824 825 825 826 827 826 827 828 829 829 830 830 831 831 832 832 833 833 834 835 835 837 837 838 839 840 841
707 714 716 717 717 720 735 740 725 721 731 735 736 747 761 758 746 744 745 743 742 741 744 749 751 753 757 759 761 762 764 764 764 764 767 769 771 773 776 778 779 782 784 786 788 789 790 791 791 793 794 795 797 799 801 802 804 806 808 809 811 812 814 815 817 819 820 822 823 823 824 825 825 827 827 827 827 828 829 830 830 831 831 832 832 833 833 834 834 835 836 837 838 839 839 841 842